Location: Banska Bystrica
(0.0000°N, 19.1500°E)
Time: 01:09:42
(UTC+02:00)

Daily predictions for brighter satellites

Satellite Brightness Start Highest point End
(mag) Time Altitude Azimuth Time Altitude Azimuth Time Altitude Azimuth
Cosmos 1980 Rocket 4.4 04:07:06 17° N 04:07:06 17° N 04:08:15 10° N
ARIANE 5 DEB (SYLDA) 4.2 04:03:50 76° NE 04:03:50 76° NE 04:12:38 10° E
Atlas Centaur 2 3.2 04:10:07 46° NE 04:10:07 46° NE 04:14:00 10° NE
ARIANE 5 R/B 3.1 04:13:33 59° SE 04:13:33 59° SE 04:31:15 10° E
CENTAUR R/B 4.1 04:13:33 18° SE 04:14:21 19° ESE 04:18:01 10° ENE
Aurora 2 Rocket 4.4 04:15:06 49° SSE 04:15:06 49° SSE 04:23:47 10° ENE
ATLAS 2A CENTAUR R/B 4.5 04:17:19 31° NE 04:17:19 31° NE 04:21:56 10° ENE
BREEZE-M DEB (TANK) 4.5 04:21:09 35° N 04:21:09 35° N 04:28:23 10° NNE
SL-16 R/B 3.4 04:25:03 32° SE 04:26:31 37° ESE 04:31:40 10° NE
SEDSat Delta rocket 4.1 04:36:16 43° NE 04:36:16 43° NE 04:39:17 10° NE
Cosmos 2297 Rocket 3.8 04:31:32 10° N 04:36:35 34° ENE 04:41:37 10° SE
BREEZE-M DEB (TANK) 4.2 04:39:11 38° ESE 04:39:11 38° ESE 04:43:39 10° SE
METEOR-M 4.3 04:35:43 10° NNE 04:41:01 69° ESE 04:41:52 59° SSE
ALOS 3.5 04:39:56 10° N 04:42:30 33° N 04:42:30 33° N
ERBS 4.1 04:56:29 27° ESE 04:56:29 27° ESE 04:58:19 10° SE
Cosmos 2322 Rocket 2.5 04:56:22 23° S 04:59:48 62° ESE 05:05:21 10° NNE
SWIFT 2.3 05:03:35 74° NNW 05:03:35 74° NNW 05:07:51 10° ENE
ARIANE 5 DEB (SYLDA) 3.5 05:02:29 51° WSW 05:03:40 71° S 05:07:20 10° E
NOSS 3-2 (A) 3.0 05:03:55 56° W 05:04:29 60° WNW 05:09:43 10° NNE
Meteor 1-31 Rocket 3.9 05:00:49 10° NNE 05:04:32 43° ESE 05:07:25 16° SSE
Cosmos 1484 Rocket 4.1 05:01:33 10° N 05:03:34 28° NNW 05:03:34 28° NNW
Ariane H10 2.2 05:05:54 71° NNW 05:06:02 72° N 05:11:41 10° E
ARIANE 5 R/B 2.4 05:06:22 51° SSW 05:06:51 54° S 05:18:12 10° E
Cosmos 2219 3.6 05:01:55 10° N 05:07:34 64° ENE 05:13:15 10° SSE
Ariane H10 3.6 04:59:16 26° W 05:09:23 87° S 05:13:44 10° E
USA 238 DEB 3.4 05:08:57 30° SSW 05:12:25 79° WNW 05:18:52 10° NNE
USA 238 3.4 05:09:01 29° SSW 05:12:31 80° WNW 05:18:58 10° NNE
CZ-3 R/B 3.7 04:34:22 10° WNW 05:14:53 58° SW 05:24:18 10° SE
GPS 2-18 Rocket1 3.9 05:20:25 24° NW 05:22:21 46° NNE 05:26:07 10° E
Okean 1-7 Rocket 3.5 05:20:13 18° SSW 05:23:28 72° W 05:27:56 10° N
Cosmos 1300 3.9 05:20:49 10° NNW 05:22:56 27° NW 05:22:56 27° NW
Timation 2 Rocket 3.9 05:18:26 10° NNW 05:24:28 85° ENE 05:30:46 10° SSE
H-2A R/B 4.1 05:21:59 10° NNE 05:25:30 39° ESE 05:29:04 10° S
SL-24 R/B 3.6 05:21:44 10° S 05:25:44 89° W 05:29:25 10° NNW
Cosmos 1452 Rocket 4.4 05:26:52 27° W 05:27:06 27° WNW 05:31:28 10° NNW
Cosmos 2360 Rocket 2.7 05:22:48 10° S 05:28:22 60° ESE 05:33:56 10° NNE
Centaur AC-42 4.0 05:24:56 19° WNW 05:29:27 47° N 06:06:03 10° ENE
Cosmos 614 Rocket 4.1 05:24:50 10° NNW 05:29:43 47° WSW 05:34:40 10° S
BLOCK DM-SL R/B 3.3 05:20:35 21° W 05:31:51 88° S 05:35:34 10° E
Cosmos 1464 Rocket 4.0 05:26:09 10° N 05:32:20 89° E 05:38:38 10° S
Cosmos 2228 2.9 05:28:26 10° N 05:32:42 76° W 05:37:02 10° S
Centaur D-1AR AC-38 3.1 05:29:33 18° WNW 05:32:46 90° NNE 05:36:40 10° ESE
Cosmos 1513 Rocket 4.3 05:27:51 10° N 05:33:58 79° W 05:40:02 10° S
ASTEX 1 4.1 05:30:34 10° SSE 05:35:23 58° E 05:40:13 10° N
GPS 2-17 Rocket1 3.7 05:32:12 13° NW 05:36:02 48° NNE 05:40:16 10° E
SJ-12 3.9 05:32:11 10° N 05:36:15 62° WNW 05:40:19 10° SSW
Cosmos 407 Rocket 3.5 05:31:54 10° NNW 05:37:14 87° ENE 05:42:33 10° SSE
Cosmos 1346 Rocket 4.2 05:38:51 20° WNW 05:38:51 20° WNW 05:41:13 10° NW
Cosmos 1331 Rocket 4.1 05:39:53 10° SSW 05:44:50 50° WNW 05:49:47 10° N
Cosmos 1455 3.5 05:42:22 10° NNE 05:46:02 44° E 05:49:43 10° SSE
Cosmos 1328 3.7 05:42:27 10° S 05:46:31 78° W 05:50:33 10° N
Gblst 52 Del rocket 4.1 05:43:23 10° NW 05:48:51 87° SW 05:54:37 10° SE
Cosmos 2333 Rocket 3.8 05:47:12 10° S 05:52:27 37° ESE 05:57:41 10° NE
ARIANE 5 DEB (SYLDA) 4.4 05:44:27 13° W 05:52:58 79° N 06:01:30 10° E
Cosmos 405 3.6 05:53:08 10° NNW 05:56:18 33° W 05:59:30 10° SSW
Atlas Centaur 2 3.8 05:52:45 10° WNW 05:57:00 19° NW 06:00:41 10° N
Envisat 3.0 05:53:09 10° N 05:58:12 85° WNW 06:03:18 10° SSW
IUS-15 SRM-1 4.4 05:57:51 12° W 06:01:13 23° NW 06:03:08 10° NNE
Cosmos 1441 Rocket 3.2 05:59:08 10° SSW 06:02:52 62° W 06:06:39 10° N
CENTAUR R/B 3.2 06:00:47 11° WSW 06:04:31 24° WNW 06:08:49 10° NNW
COSMOS 2455 3.4 06:00:28 10° NW 06:05:49 34° WSW 06:11:12 10° S
deb Centaur AC-2 4.3 06:02:53 11° WSW 06:07:14 57° NNW 06:11:27 10° NE
USA 32 4.5 06:02:30 10° NNW 06:07:23 40° W 06:12:17 10° SSW
Myojo/LAPS 4.5 06:04:10 10° SW 06:07:23 70° SE 06:19:25 10° ENE
ARIANE 5 DEB (SYLDA) 3.6 06:05:33 10° WSW 06:09:01 49° S 06:16:39 10° E
SL-16 R/B 3.8 06:07:16 10° WSW 06:10:20 15° WNW 06:13:24 10° NW
ARIANE 5 DEB (SYLDA) 3.0 06:06:38 10° WSW 06:10:30 30° S 06:12:45 10° ESE
Cosmos 2058 Rocket 3.1 06:06:18 10° N 06:10:47 76° W 06:15:16 10° S
CZ-4C R/B 3.2 06:08:20 10° S 06:11:40 45° WSW 06:14:53 10° NNW
Ariane H10 2.6 06:10:03 10° WNW 06:12:08 37° N 06:14:16 10° ENE
Ariane H10+ 2.1 06:06:50 10° W 06:12:21 35° SSW 06:14:53 10° SE
Meteor PRIRODA 4.1 06:12:41 10° N 06:16:05 38° W 06:19:29 10° SSW
Cosmos 2227 Rocket 3.1 06:11:32 10° NW 06:16:09 26° WSW 06:20:48 10° SSW
COSMO-SKYMED 1 3.4 06:12:26 10° SSE 06:16:43 59° ENE 06:20:58 10° N
Cosmos 1825 Rocket 4.3 06:13:19 10° S 06:17:34 59° E 06:21:48 10° NNE
H-2A R/B 4.3 06:12:39 10° W 06:19:14 18° SW 06:22:09 10° S
SJ-7 4.5 06:15:41 10° N 06:19:40 58° WNW 06:23:38 10° SSW
Cosmos 2297 Rocket 3.6 06:16:54 10° WNW 06:20:20 16° WSW 06:23:46 10° SW
Cosmos 2333 4.3 06:15:59 10° SSW 06:21:42 78° WNW 06:27:26 10° NNE
BLOCK DM-SL R/B 2.9 06:24:18 10° W 06:45:13 87° S 06:48:50 10° E
